OMD184 KMIA-KGYR

Flight info

Callsign OMD184
Flight time N/A
Altitude 38000
Route HURCN4 SMELZ Q116 JAWJA DCT CHEWS DCT SHYRE DCT KEENY DCT MHZ J4 ABI J66 EWM J4 SSO SUNSS8
Aircraft A21N/M-SDFGHIRW/LB1

Departure

Time N/A
Airport Miami International Airport (KMIA)

Arrival

Time 2026-05-05 00:50
Airport Phoenix Goodyear Airport (KGYR)
Time Latitude Longitude Altitude Speed Heading
2026-05-04 22:01 32.68467 -92.57381 37456 ft 317 kts 298°
2026-05-04 22:01 32.69039 -92.59950 37612 ft 330 kts 278°
2026-05-04 22:02 32.68725 -92.62726 37704 ft 347 kts 268°
2026-05-04 22:02 32.77815 -93.95397 37434 ft 380 kts 279°
2026-05-04 22:02 32.77931 -93.97554 37550 ft 370 kts 279°
2026-05-04 22:03 32.78094 -94.00574 37640 ft 362 kts 280°
2026-05-04 22:03 32.78421 -94.03499 37853 ft 354 kts 284°
2026-05-04 22:03 32.78821 -94.06371 37946 ft 352 kts 283°
2026-05-04 22:04 32.79418 -94.12147 37926 ft 352 kts 281°
2026-05-04 22:04 32.79878 -94.17940 37914 ft 352 kts 281°
2026-05-04 22:05 32.80309 -94.23753 37909 ft 353 kts 280°
2026-05-04 22:05 32.80730 -94.29560 37908 ft 353 kts 280°
2026-05-04 22:06 32.81141 -94.35379 37909 ft 353 kts 280°
2026-05-04 22:06 32.81556 -94.41201 37906 ft 353 kts 280°
2026-05-04 22:07 32.81972 -94.47017 37905 ft 353 kts 280°
2026-05-04 22:07 32.82382 -94.52836 37906 ft 353 kts 280°
2026-05-04 22:08 32.82788 -94.58665 37905 ft 354 kts 280°
2026-05-04 22:08 32.83190 -94.64486 37904 ft 353 kts 280°
2026-05-04 22:09 32.83592 -94.70317 37896 ft 354 kts 280°
2026-05-04 22:09 32.83990 -94.76112 37898 ft 354 kts 280°
2026-05-04 22:10 32.84387 -94.81949 37896 ft 354 kts 280°
2026-05-04 22:10 32.84785 -94.87794 37896 ft 354 kts 280°
2026-05-04 22:11 32.85184 -94.93642 37890 ft 355 kts 280°
2026-05-04 22:11 32.85574 -94.99492 37892 ft 355 kts 280°
2026-05-04 22:12 32.85960 -95.05344 37886 ft 355 kts 279°
2026-05-04 22:12 32.86473 -95.11170 37888 ft 352 kts 284°
2026-05-04 22:13 32.86689 -95.17054 37884 ft 358 kts 277°
2026-05-04 22:13 32.86754 -95.22974 37880 ft 358 kts 277°
2026-05-04 22:14 32.86850 -95.28895 37869 ft 358 kts 277°
2026-05-04 22:14 32.86954 -95.34815 37872 ft 358 kts 277°
2026-05-04 22:15 32.87060 -95.40732 37864 ft 358 kts 277°
2026-05-04 22:15 32.87163 -95.46652 37869 ft 358 kts 277°
2026-05-04 22:16 32.87264 -95.52568 37866 ft 358 kts 277°
2026-05-04 22:16 32.87362 -95.58483 37866 ft 358 kts 277°
2026-05-04 22:17 32.87458 -95.64403 37867 ft 358 kts 277°
2026-05-04 22:17 32.87547 -95.70289 37870 ft 358 kts 277°
2026-05-04 22:18 32.87636 -95.76213 37864 ft 358 kts 277°
2026-05-04 22:18 32.87721 -95.82138 37866 ft 358 kts 277°
2026-05-04 22:19 32.87807 -95.88060 37854 ft 358 kts 277°
2026-05-04 22:19 32.87887 -95.93989 37856 ft 358 kts 277°
2026-05-04 22:20 32.87964 -95.99918 37855 ft 358 kts 277°
2026-05-04 22:20 32.88039 -96.05852 37853 ft 359 kts 277°
2026-05-04 22:21 32.88109 -96.11794 37849 ft 359 kts 277°
2026-05-04 22:21 32.88180 -96.17738 37853 ft 359 kts 277°
2026-05-04 22:22 32.88238 -96.22682 37848 ft 360 kts 277°
2026-05-04 22:22 32.88313 -96.29607 37855 ft 360 kts 277°
2026-05-04 22:23 32.88374 -96.35557 37845 ft 360 kts 276°
2026-05-04 22:23 32.88432 -96.41514 37854 ft 360 kts 276°
2026-05-04 22:24 32.88478 -96.46503 37850 ft 360 kts 276°
2026-05-04 22:24 32.88534 -96.52416 37846 ft 360 kts 276°
2026-05-04 22:25 32.88584 -96.58369 37849 ft 360 kts 276°
2026-05-04 22:25 32.88631 -96.64322 37841 ft 360 kts 276°
2026-05-04 22:26 32.88676 -96.70283 37820 ft 360 kts 276°
2026-05-04 22:26 32.88720 -96.76241 37816 ft 360 kts 276°
2026-05-04 22:27 32.88757 -96.82202 37820 ft 360 kts 276°
2026-05-04 22:27 32.88794 -96.88160 37822 ft 360 kts 276°
2026-05-04 22:28 32.88827 -96.94116 37802 ft 360 kts 276°
2026-05-04 22:28 32.88859 -97.00067 37800 ft 360 kts 276°
2026-05-04 22:29 32.88887 -97.06024 37801 ft 360 kts 276°
2026-05-04 22:29 32.88913 -97.11934 37799 ft 359 kts 276°
2026-05-04 22:30 32.88877 -97.17890 37799 ft 362 kts 272°
2026-05-04 22:30 32.88121 -97.23872 37800 ft 367 kts 268°
2026-05-04 22:31 32.87249 -97.29861 37797 ft 367 kts 268°
2026-05-04 22:31 32.86396 -97.35838 37797 ft 367 kts 268°
2026-05-04 22:32 32.85547 -97.41819 37800 ft 367 kts 268°
2026-05-04 22:32 32.84690 -97.47812 37811 ft 367 kts 268°
2026-05-04 22:33 32.83832 -97.53796 37804 ft 367 kts 268°
2026-05-04 22:33 32.82976 -97.59738 37988 ft 367 kts 268°
2026-05-04 22:34 32.82118 -97.65693 38021 ft 365 kts 268°
2026-05-04 22:34 32.81256 -97.71639 38030 ft 365 kts 268°
2026-05-04 22:35 32.80392 -97.77584 38013 ft 365 kts 268°
2026-05-04 22:35 32.79523 -97.83534 37973 ft 365 kts 268°
2026-05-04 22:35 32.79086 -97.86505 37792 ft 365 kts 268°
2026-05-04 22:36 32.78652 -97.89478 37784 ft 365 kts 268°
2026-05-04 22:36 32.77779 -97.95432 37781 ft 366 kts 267°
2026-05-04 22:37 32.76902 -98.01383 37777 ft 366 kts 267°
2026-05-04 22:37 32.76024 -98.07336 37779 ft 366 kts 267°
2026-05-04 22:38 32.75141 -98.13287 37778 ft 366 kts 267°
2026-05-04 22:38 32.74255 -98.19230 37772 ft 366 kts 267°
2026-05-04 22:39 32.73367 -98.25175 37770 ft 365 kts 267°
2026-05-04 22:39 32.72480 -98.31085 37765 ft 366 kts 267°
2026-05-04 22:40 32.71585 -98.37030 37761 ft 366 kts 267°
2026-05-04 22:40 32.70687 -98.42975 37751 ft 365 kts 267°
2026-05-04 22:41 32.69787 -98.48914 37750 ft 365 kts 267°
2026-05-04 22:41 32.68886 -98.54846 37760 ft 365 kts 267°
2026-05-04 22:42 32.67982 -98.60776 37764 ft 365 kts 267°
2026-05-04 22:42 32.67074 -98.66708 37774 ft 365 kts 266°
2026-05-04 22:43 32.66162 -98.72641 37779 ft 366 kts 266°
2026-05-04 22:43 32.65249 -98.78572 37786 ft 365 kts 266°
2026-05-04 22:44 32.64333 -98.84500 37789 ft 365 kts 266°
2026-05-04 22:44 32.63416 -98.90419 37790 ft 365 kts 266°
2026-05-04 22:45 32.62494 -98.96343 37784 ft 365 kts 266°
2026-05-04 22:45 32.61108 -99.05220 37774 ft 365 kts 266°
2026-05-04 22:46 32.60182 -99.11133 37761 ft 364 kts 266°
2026-05-04 22:46 32.59251 -99.17048 37757 ft 365 kts 266°
2026-05-04 22:47 32.58317 -99.22961 37744 ft 365 kts 266°
2026-05-04 22:47 32.57389 -99.28830 37739 ft 365 kts 266°
2026-05-04 22:48 32.56450 -99.34742 37741 ft 365 kts 266°
2026-05-04 22:48 32.55509 -99.40652 37755 ft 365 kts 266°
2026-05-04 22:49 32.54565 -99.46560 37766 ft 365 kts 266°
2026-05-04 22:49 32.53618 -99.52471 37778 ft 365 kts 266°
2026-05-04 22:50 32.52666 -99.58386 37786 ft 365 kts 266°
2026-05-04 22:50 32.51712 -99.64301 37794 ft 365 kts 266°
2026-05-04 22:51 32.50756 -99.70211 37793 ft 365 kts 266°
2026-05-04 22:51 32.49796 -99.76126 37797 ft 366 kts 266°
2026-05-04 22:52 32.48833 -99.82039 37768 ft 366 kts 266°
2026-05-04 22:52 32.48021 -99.87968 37765 ft 362 kts 271°
2026-05-04 22:53 32.47712 -99.93904 37769 ft 361 kts 272°
2026-05-04 22:53 32.47409 -99.99837 37763 ft 361 kts 271°
2026-05-04 22:54 32.47092 -100.05775 37748 ft 361 kts 271°
2026-05-04 22:54 32.46772 -100.11676 37735 ft 361 kts 271°
2026-05-04 22:55 32.46447 -100.17618 37753 ft 362 kts 271°
2026-05-04 22:55 32.46116 -100.23566 37771 ft 362 kts 271°
2026-05-04 22:56 32.45784 -100.29508 37791 ft 362 kts 271°
2026-05-04 22:56 32.45451 -100.35456 37820 ft 362 kts 271°
2026-05-04 22:57 32.45112 -100.41391 37815 ft 361 kts 271°
2026-05-04 22:57 32.44773 -100.47334 37815 ft 362 kts 271°
2026-05-04 22:58 32.44429 -100.53280 37821 ft 362 kts 271°
2026-05-04 22:58 32.44082 -100.59226 37810 ft 362 kts 271°
2026-05-04 22:59 32.43734 -100.65172 37792 ft 362 kts 271°
2026-05-04 22:59 32.43382 -100.71121 37772 ft 362 kts 271°
2026-05-04 23:00 32.43028 -100.77073 37747 ft 363 kts 271°
2026-05-04 23:00 32.42671 -100.83020 37731 ft 362 kts 271°
2026-05-04 23:01 32.42313 -100.88933 37735 ft 363 kts 271°
2026-05-04 23:01 32.41948 -100.94887 37734 ft 362 kts 271°
2026-05-04 23:02 32.41583 -101.00833 37728 ft 362 kts 271°
2026-05-04 23:02 32.41216 -101.06779 37721 ft 362 kts 271°
2026-05-04 23:03 32.40843 -101.12724 37717 ft 362 kts 271°
2026-05-04 23:03 32.40469 -101.18671 37701 ft 362 kts 270°
2026-05-04 23:04 32.40092 -101.24612 37728 ft 362 kts 270°
2026-05-04 23:04 32.39711 -101.30552 37745 ft 362 kts 270°
2026-05-04 23:05 32.39330 -101.36487 37761 ft 362 kts 270°
2026-05-04 23:05 32.38944 -101.42423 37775 ft 362 kts 270°
2026-05-04 23:06 32.38557 -101.48360 37784 ft 362 kts 270°
2026-05-04 23:06 32.38137 -101.54288 37788 ft 362 kts 270°
2026-05-04 23:07 32.37707 -101.60218 37786 ft 362 kts 270°
2026-05-04 23:07 32.37277 -101.66144 37775 ft 362 kts 270°
2026-05-04 23:08 32.36844 -101.72070 37765 ft 362 kts 270°
2026-05-04 23:08 32.36409 -101.77991 37745 ft 362 kts 269°
2026-05-04 23:09 32.35971 -101.83920 37726 ft 362 kts 269°
2026-05-04 23:09 32.35529 -101.89846 37707 ft 361 kts 269°
2026-05-04 23:10 32.35090 -101.95724 37719 ft 361 kts 269°
2026-05-04 23:10 32.34643 -102.01641 37724 ft 361 kts 269°
2026-05-04 23:11 32.34194 -102.07557 37737 ft 362 kts 269°
2026-05-04 23:11 32.33818 -102.12507 37737 ft 360 kts 269°
2026-05-04 23:12 32.33363 -102.18414 37738 ft 361 kts 269°
2026-05-04 23:12 32.32904 -102.24336 37735 ft 360 kts 269°
2026-05-04 23:13 32.32443 -102.30231 37740 ft 361 kts 269°
2026-05-04 23:13 32.31984 -102.36148 37721 ft 361 kts 269°
2026-05-04 23:14 32.31524 -102.42022 37728 ft 361 kts 269°
2026-05-04 23:14 32.31056 -102.47935 37724 ft 361 kts 268°
2026-05-04 23:15 32.30586 -102.53850 37729 ft 359 kts 269°
2026-05-04 23:15 32.30114 -102.59741 37724 ft 361 kts 268°
2026-05-04 23:16 32.29640 -102.65660 37731 ft 361 kts 269°
2026-05-04 23:16 32.29162 -102.71568 37729 ft 362 kts 268°
2026-05-04 23:17 32.28678 -102.77487 37728 ft 362 kts 268°
2026-05-04 23:17 32.28192 -102.83410 37727 ft 362 kts 268°
2026-05-04 23:18 32.27705 -102.89327 37728 ft 362 kts 268°
2026-05-04 23:18 32.27214 -102.95244 37726 ft 362 kts 268°
2026-05-04 23:19 32.26720 -103.01165 37730 ft 362 kts 268°
2026-05-04 23:19 32.26224 -103.07085 37722 ft 362 kts 268°
2026-05-04 23:20 32.25724 -103.13004 37722 ft 362 kts 268°
2026-05-04 23:20 32.25222 -103.18928 37715 ft 363 kts 268°
2026-05-04 23:21 32.24721 -103.24816 37723 ft 363 kts 268°
2026-05-04 23:21 32.24211 -103.30747 37724 ft 363 kts 268°
2026-05-04 23:22 32.23700 -103.36669 37727 ft 363 kts 268°
2026-05-04 23:22 32.23187 -103.42597 37720 ft 362 kts 267°
2026-05-04 23:23 32.22671 -103.48516 37726 ft 362 kts 267°
2026-05-04 23:23 32.22153 -103.54437 37726 ft 362 kts 267°
2026-05-04 23:24 32.21632 -103.60351 37729 ft 362 kts 267°
2026-05-04 23:24 32.21109 -103.66265 37720 ft 362 kts 267°
2026-05-04 23:25 32.20581 -103.72178 37724 ft 362 kts 267°
2026-05-04 23:25 32.20053 -103.78081 37720 ft 362 kts 267°
2026-05-04 23:26 32.19520 -103.83990 37719 ft 362 kts 267°
2026-05-04 23:26 32.18986 -103.89896 37727 ft 362 kts 267°
2026-05-04 23:27 32.18450 -103.95798 37751 ft 361 kts 266°
2026-05-04 23:27 32.17910 -104.01699 37769 ft 361 kts 266°
2026-05-04 23:28 32.17372 -104.07561 37796 ft 362 kts 266°
2026-05-04 23:28 32.16826 -104.13457 37806 ft 361 kts 266°
2026-05-04 23:29 32.16274 -104.19362 37816 ft 363 kts 266°
2026-05-04 23:29 32.15722 -104.25271 37819 ft 362 kts 266°
2026-05-04 23:30 32.15167 -104.31175 37820 ft 362 kts 266°
2026-05-04 23:30 32.14611 -104.37093 37808 ft 363 kts 266°
2026-05-04 23:31 32.14053 -104.43024 37800 ft 364 kts 266°
2026-05-04 23:31 32.13485 -104.48971 37786 ft 364 kts 266°
2026-05-04 23:32 32.12912 -104.54911 37774 ft 363 kts 266°
2026-05-04 23:32 32.12345 -104.60834 37767 ft 363 kts 266°
2026-05-04 23:33 32.11771 -104.66753 37766 ft 364 kts 266°
2026-05-04 23:33 32.11193 -104.72691 37770 ft 365 kts 265°
2026-05-04 23:34 32.10612 -104.78620 37786 ft 363 kts 265°
2026-05-04 23:34 32.10032 -104.84545 37785 ft 364 kts 265°
2026-05-04 23:35 32.09448 -104.90469 37767 ft 364 kts 265°
2026-05-04 23:35 32.09154 -104.93438 37659 ft 364 kts 265°
2026-05-04 23:35 32.08880 -104.96407 37707 ft 363 kts 267°
2026-05-04 23:36 32.08637 -105.02354 37761 ft 363 kts 266°
2026-05-04 23:36 32.08165 -105.08296 37764 ft 364 kts 265°
2026-05-04 23:37 32.07593 -105.14215 37768 ft 363 kts 264°
2026-05-04 23:37 32.07002 -105.20095 37762 ft 364 kts 264°
2026-05-04 23:38 32.06399 -105.26013 37761 ft 364 kts 264°
2026-05-04 23:38 32.05794 -105.31936 37766 ft 364 kts 264°
2026-05-04 23:39 32.05189 -105.37853 37763 ft 364 kts 264°
2026-05-04 23:39 32.04579 -105.43777 37767 ft 363 kts 264°
2026-05-04 23:40 32.03967 -105.49685 37766 ft 364 kts 264°
2026-05-04 23:40 32.03321 -105.55597 37774 ft 364 kts 261°
2026-05-04 23:41 32.02365 -105.61466 37774 ft 364 kts 262°
2026-05-04 23:41 32.01633 -105.67375 37777 ft 365 kts 263°
2026-05-04 23:42 32.00988 -105.73301 37780 ft 365 kts 263°
2026-05-04 23:42 32.00360 -105.79232 37782 ft 365 kts 263°
2026-05-04 23:43 31.99730 -105.85157 37781 ft 365 kts 263°
2026-05-04 23:43 31.99101 -105.91051 37776 ft 365 kts 263°
2026-05-04 23:44 31.98468 -105.96968 37782 ft 364 kts 263°
2026-05-04 23:44 31.97831 -106.02888 37796 ft 364 kts 263°
2026-05-04 23:45 31.97187 -106.08802 37824 ft 364 kts 263°
2026-05-04 23:45 31.96545 -106.14708 37850 ft 364 kts 263°
2026-05-04 23:46 31.95901 -106.20618 37887 ft 364 kts 263°
2026-05-04 23:46 31.95324 -106.26543 37909 ft 364 kts 267°
2026-05-04 23:47 31.95760 -106.32497 37929 ft 366 kts 275°
2026-05-04 23:47 31.96485 -106.38437 37935 ft 367 kts 275°
2026-05-04 23:48 31.97186 -106.44374 37920 ft 365 kts 275°
2026-05-04 23:48 31.97882 -106.50317 37900 ft 367 kts 275°
2026-05-04 23:49 31.98575 -106.56277 37914 ft 368 kts 275°
2026-05-04 23:49 31.99264 -106.62244 37937 ft 367 kts 275°
2026-05-04 23:50 31.99950 -106.68207 37946 ft 367 kts 275°
2026-05-04 23:50 32.00634 -106.74181 37940 ft 368 kts 274°
2026-05-04 23:51 32.01317 -106.80152 37921 ft 368 kts 274°
2026-05-04 23:51 32.01998 -106.86130 37890 ft 368 kts 274°
2026-05-04 23:52 32.02675 -106.92116 37858 ft 368 kts 274°
2026-05-04 23:52 32.03345 -106.98066 37851 ft 369 kts 274°
2026-05-04 23:53 32.04019 -107.04053 37841 ft 368 kts 274°
2026-05-04 23:53 32.04687 -107.10039 37833 ft 369 kts 274°
2026-05-04 23:54 32.05353 -107.16035 37812 ft 370 kts 274°
2026-05-04 23:54 32.06021 -107.22040 37785 ft 370 kts 274°
2026-05-04 23:55 32.06682 -107.28054 37775 ft 370 kts 274°
2026-05-04 23:56 32.07675 -107.37073 37785 ft 370 kts 274°
2026-05-04 23:56 32.08332 -107.43079 37821 ft 369 kts 273°
2026-05-04 23:57 32.08873 -107.48086 37850 ft 373 kts 273°
2026-05-04 23:57 32.09526 -107.54106 37880 ft 370 kts 273°
2026-05-04 23:58 32.10175 -107.60137 37908 ft 371 kts 273°
2026-05-04 23:58 32.10823 -107.66174 37988 ft 369 kts 273°
2026-05-04 23:59 32.11461 -107.72164 37956 ft 369 kts 273°
2026-05-04 23:59 32.12101 -107.78179 37936 ft 369 kts 273°
2026-05-05 00:00 32.12739 -107.84202 37926 ft 370 kts 272°
2026-05-05 00:00 32.13370 -107.90190 37904 ft 370 kts 272°
2026-05-05 00:01 32.14000 -107.96212 37879 ft 370 kts 272°
2026-05-05 00:01 32.14628 -108.02233 37851 ft 370 kts 272°
2026-05-05 00:02 32.15254 -108.08238 37821 ft 367 kts 272°
2026-05-05 00:02 32.15869 -108.14227 37804 ft 367 kts 272°
2026-05-05 00:03 32.16484 -108.20211 37807 ft 368 kts 272°
2026-05-05 00:03 32.17099 -108.26211 37803 ft 368 kts 272°
2026-05-05 00:04 32.17713 -108.32216 37810 ft 368 kts 272°
2026-05-05 00:04 32.18321 -108.38217 37845 ft 368 kts 272°
2026-05-05 00:05 32.18927 -108.44214 37880 ft 367 kts 271°
2026-05-05 00:05 32.19527 -108.50197 37908 ft 367 kts 271°
2026-05-05 00:06 32.20126 -108.56187 37941 ft 367 kts 271°
2026-05-05 00:06 32.20721 -108.62179 37962 ft 367 kts 271°
2026-05-05 00:07 32.21313 -108.68167 37978 ft 367 kts 271°
2026-05-05 00:07 32.21904 -108.74138 37984 ft 366 kts 271°
2026-05-05 00:08 32.22482 -108.80080 37968 ft 367 kts 271°
2026-05-05 00:08 32.23069 -108.86055 37939 ft 366 kts 271°
2026-05-05 00:09 32.23648 -108.92029 37912 ft 366 kts 271°
2026-05-05 00:09 32.24225 -108.97996 37877 ft 365 kts 271°
2026-05-05 00:10 32.24799 -109.03972 37851 ft 365 kts 270°
2026-05-05 00:10 32.25366 -109.09928 37800 ft 365 kts 270°
2026-05-05 00:11 32.25928 -109.15875 37805 ft 364 kts 270°
2026-05-05 00:11 32.26493 -109.21818 37804 ft 364 kts 270°
2026-05-05 00:12 32.27263 -109.27745 37811 ft 369 kts 277°
2026-05-05 00:12 32.28687 -109.33596 37795 ft 371 kts 278°
2026-05-05 00:13 32.30128 -109.39446 37796 ft 370 kts 278°
2026-05-05 00:13 32.31555 -109.45293 37800 ft 370 kts 278°
2026-05-05 00:14 32.32976 -109.51130 37800 ft 369 kts 277°
2026-05-05 00:14 32.34392 -109.56967 37804 ft 369 kts 277°
2026-05-05 00:15 32.35795 -109.62759 37814 ft 369 kts 277°
2026-05-05 00:15 32.37204 -109.68589 37822 ft 368 kts 277°
2026-05-05 00:16 32.38608 -109.74417 37827 ft 368 kts 277°
2026-05-05 00:16 32.40018 -109.80281 37842 ft 368 kts 277°
2026-05-05 00:17 32.41407 -109.86067 37853 ft 368 kts 277°
2026-05-05 00:17 32.42802 -109.91890 37856 ft 368 kts 277°
2026-05-05 00:18 32.44191 -109.97707 37867 ft 367 kts 277°
2026-05-05 00:18 32.45577 -110.03525 37875 ft 367 kts 277°
2026-05-05 00:19 32.46959 -110.09319 37587 ft 361 kts 277°
2026-05-05 00:19 32.47643 -110.12203 36384 ft 367 kts 276°
2026-05-05 00:19 32.48336 -110.15146 35221 ft 374 kts 277°
2026-05-05 00:19 32.49039 -110.18115 34354 ft 374 kts 277°
2026-05-05 00:20 32.49741 -110.21067 33578 ft 371 kts 277°
2026-05-05 00:20 32.50435 -110.23994 32784 ft 368 kts 277°
2026-05-05 00:20 32.51122 -110.26907 31980 ft 367 kts 277°
2026-05-05 00:20 32.51810 -110.29829 31201 ft 368 kts 277°
2026-05-05 00:21 32.52498 -110.32747 30494 ft 367 kts 277°
2026-05-05 00:21 32.53181 -110.35643 29811 ft 364 kts 277°
2026-05-05 00:21 32.53858 -110.38532 29046 ft 364 kts 277°
2026-05-05 00:21 32.54534 -110.41412 28318 ft 361 kts 278°
2026-05-05 00:22 32.55205 -110.44272 27622 ft 359 kts 278°
2026-05-05 00:22 32.55871 -110.47116 26908 ft 357 kts 278°
2026-05-05 00:22 32.56534 -110.49951 26211 ft 356 kts 278°
2026-05-05 00:22 32.57196 -110.52776 25539 ft 354 kts 279°
2026-05-05 00:23 32.57857 -110.55582 24867 ft 352 kts 279°
2026-05-05 00:23 32.58510 -110.58379 24191 ft 352 kts 279°
2026-05-05 00:23 32.59154 -110.61141 23699 ft 342 kts 279°
2026-05-05 00:23 32.59778 -110.63828 23332 ft 333 kts 279°
2026-05-05 00:24 32.60389 -110.66464 22959 ft 330 kts 279°
2026-05-05 00:24 32.60994 -110.69084 22584 ft 328 kts 279°
2026-05-05 00:24 32.61594 -110.71686 22207 ft 326 kts 279°
2026-05-05 00:24 32.62195 -110.74282 21819 ft 326 kts 279°
2026-05-05 00:25 32.62794 -110.76867 21431 ft 324 kts 279°
2026-05-05 00:25 32.63390 -110.79440 21035 ft 323 kts 279°
2026-05-05 00:25 32.63981 -110.82003 20642 ft 321 kts 279°
2026-05-05 00:25 32.64451 -110.84039 20319 ft 321 kts 279°
2026-05-05 00:26 32.65036 -110.86579 19922 ft 318 kts 279°
2026-05-05 00:26 32.65618 -110.89106 19530 ft 317 kts 279°
2026-05-05 00:26 32.66196 -110.91623 19142 ft 315 kts 279°
2026-05-05 00:26 32.66773 -110.94124 18726 ft 314 kts 279°
2026-05-05 00:27 32.67359 -110.96608 18347 ft 314 kts 281°
2026-05-05 00:27 32.68287 -110.98963 17883 ft 321 kts 297°
2026-05-05 00:27 32.69728 -111.01014 17440 ft 324 kts 305°
2026-05-05 00:27 32.71270 -111.02961 17036 ft 322 kts 306°
2026-05-05 00:28 32.72798 -111.04891 16630 ft 319 kts 306°
2026-05-05 00:28 32.74305 -111.06811 16226 ft 316 kts 306°
2026-05-05 00:28 32.75791 -111.08719 15824 ft 314 kts 306°
2026-05-05 00:28 32.77261 -111.10616 15422 ft 311 kts 306°
2026-05-05 00:29 32.78723 -111.12507 15023 ft 310 kts 307°
2026-05-05 00:29 32.80181 -111.14393 14620 ft 309 kts 307°
2026-05-05 00:29 32.81636 -111.16275 14211 ft 310 kts 307°
2026-05-05 00:29 32.83092 -111.18160 13804 ft 307 kts 307°
2026-05-05 00:30 32.84544 -111.20048 13361 ft 309 kts 308°
2026-05-05 00:30 32.85997 -111.21928 12921 ft 308 kts 307°
2026-05-05 00:30 32.87419 -111.23771 12505 ft 307 kts 307°
2026-05-05 00:30 32.88855 -111.25634 12098 ft 305 kts 307°
2026-05-05 00:31 32.90286 -111.27493 11700 ft 304 kts 307°
2026-05-05 00:31 32.91708 -111.29342 11306 ft 302 kts 307°
2026-05-05 00:31 32.93123 -111.31181 10915 ft 301 kts 307°
2026-05-05 00:31 32.94517 -111.32993 10585 ft 291 kts 307°
2026-05-05 00:32 32.95861 -111.34740 10239 ft 282 kts 306°
2026-05-05 00:32 32.97170 -111.36443 9851 ft 276 kts 306°
2026-05-05 00:32 32.98458 -111.38122 9430 ft 274 kts 306°
2026-05-05 00:32 32.99752 -111.39813 9064 ft 281 kts 307°
2026-05-05 00:33 33.01078 -111.41548 8950 ft 283 kts 307°
2026-05-05 00:33 33.02403 -111.43280 8944 ft 283 kts 307°
2026-05-05 00:33 33.03732 -111.45014 8957 ft 283 kts 307°
2026-05-05 00:33 33.05060 -111.46748 8968 ft 283 kts 307°
2026-05-05 00:34 33.06270 -111.48575 8965 ft 278 kts 296°
2026-05-05 00:34 33.07175 -111.50604 8968 ft 276 kts 288°
2026-05-05 00:34 33.07739 -111.52767 8978 ft 273 kts 281°
2026-05-05 00:34 33.08197 -111.54964 8982 ft 272 kts 279°
2026-05-05 00:35 33.08640 -111.57159 8990 ft 273 kts 279°
2026-05-05 00:35 33.09079 -111.59361 8990 ft 272 kts 279°
2026-05-05 00:35 33.09516 -111.61557 8988 ft 272 kts 279°
2026-05-05 00:35 33.09951 -111.63753 8986 ft 273 kts 279°
2026-05-05 00:36 33.10387 -111.65958 8999 ft 273 kts 279°
2026-05-05 00:36 33.10822 -111.68158 8999 ft 272 kts 279°
2026-05-05 00:36 33.11259 -111.70358 8998 ft 273 kts 279°
2026-05-05 00:36 33.11701 -111.72566 8999 ft 273 kts 279°
2026-05-05 00:37 33.12139 -111.74754 8992 ft 273 kts 279°
2026-05-05 00:37 33.12581 -111.76961 8994 ft 273 kts 279°
2026-05-05 00:37 33.13023 -111.79164 8994 ft 273 kts 279°
2026-05-05 00:37 33.13467 -111.81370 8993 ft 273 kts 279°
2026-05-05 00:38 33.13853 -111.83284 8993 ft 273 kts 279°
2026-05-05 00:38 33.14297 -111.85488 8982 ft 273 kts 279°
2026-05-05 00:38 33.14744 -111.87695 8980 ft 273 kts 279°
2026-05-05 00:38 33.15192 -111.89903 8979 ft 274 kts 279°
2026-05-05 00:39 33.15638 -111.92109 8980 ft 274 kts 279°
2026-05-05 00:39 33.16080 -111.94295 8991 ft 274 kts 279°
2026-05-05 00:39 33.16532 -111.96514 8805 ft 268 kts 279°
2026-05-05 00:39 33.16975 -111.98671 8236 ft 268 kts 279°
2026-05-05 00:40 33.17268 -112.00103 7848 ft 269 kts 279°
2026-05-05 00:40 33.17711 -112.02278 7280 ft 269 kts 279°
2026-05-05 00:40 33.18301 -112.05160 6528 ft 271 kts 279°
2026-05-05 00:40 33.18603 -112.06640 6195 ft 273 kts 279°
2026-05-05 00:41 33.19039 -112.08803 5974 ft 271 kts 279°
2026-05-05 00:41 33.19475 -112.10992 5939 ft 271 kts 279°
2026-05-05 00:41 33.20052 -112.13889 5946 ft 271 kts 279°
2026-05-05 00:41 33.20346 -112.15366 5952 ft 271 kts 279°
2026-05-05 00:42 33.20788 -112.17545 5960 ft 270 kts 279°
2026-05-05 00:42 33.21232 -112.19725 5977 ft 269 kts 279°
2026-05-05 00:42 33.21673 -112.21902 5984 ft 271 kts 280°
2026-05-05 00:42 33.22111 -112.24048 5924 ft 269 kts 279°
2026-05-05 00:43 33.22549 -112.26213 5951 ft 269 kts 279°
2026-05-05 00:43 33.22986 -112.28362 5760 ft 263 kts 279°
2026-05-05 00:43 33.23415 -112.30486 5279 ft 264 kts 280°
2026-05-05 00:43 33.23830 -112.32619 5022 ft 262 kts 279°
2026-05-05 00:44 33.24273 -112.34732 4961 ft 263 kts 285°
2026-05-05 00:44 33.25240 -112.36611 4962 ft 272 kts 309°
2026-05-05 00:44 33.26811 -112.37886 4972 ft 278 kts 334°
2026-05-05 00:44 33.28707 -112.38334 4824 ft 279 kts 356°
2026-05-05 00:45 33.30613 -112.37902 4322 ft 282 kts 19°
2026-05-05 00:45 33.32379 -112.36946 4043 ft 273 kts 27°
2026-05-05 00:45 33.33917 -112.35749 3970 ft 254 kts 34°
2026-05-05 00:45 33.35294 -112.34564 3972 ft 232 kts 35°
2026-05-05 00:46 33.36514 -112.33504 3985 ft 207 kts 34°
2026-05-05 00:46 33.37678 -112.32484 3844 ft 206 kts 35°
2026-05-05 00:46 33.38833 -112.31474 3640 ft 205 kts 35°
2026-05-05 00:46 33.39978 -112.30470 3425 ft 203 kts 35°
2026-05-05 00:47 33.41068 -112.29514 3214 ft 184 kts 35°
2026-05-05 00:47 33.42034 -112.28749 2994 ft 150 kts 19°
2026-05-05 00:47 33.43039 -112.28677 2763 ft 142 kts 350°
2026-05-05 00:47 33.43867 -112.29176 2584 ft 130 kts 307°
2026-05-05 00:48 33.44185 -112.30101 2420 ft 117 kts 272°
2026-05-05 00:48 33.44116 -112.31068 2260 ft 119 kts 269°
2026-05-05 00:48 33.44476 -112.32016 2013 ft 133 kts 297°
2026-05-05 00:48 33.44952 -112.32962 1848 ft 132 kts 293°
2026-05-05 00:49 33.44993 -112.33988 1753 ft 123 kts 258°
2026-05-05 00:49 33.44751 -112.34953 1463 ft 119 kts 242°
2026-05-05 00:49 33.44235 -112.35734 1325 ft 120 kts 223°
2026-05-05 00:49 33.43595 -112.36361 1097 ft 118 kts 218°
2026-05-05 00:50 33.42950 -112.36953 983 ft 117 kts 219°
2026-05-05 00:50 33.42390 -112.37484 978 ft 80 kts 220°
2026-05-05 00:50 33.42053 -112.37795 969 ft 38 kts 217°
2026-05-05 00:50 33.41921 -112.37916 973 ft 13 kts 214°
2026-05-05 00:51 33.41843 -112.37909 978 ft 13 kts 137°
2026-05-05 00:51 33.41860 -112.37808 968 ft 16 kts 36°
2026-05-05 00:51 33.41955 -112.37720 969 ft 18 kts 38°
2026-05-05 00:51 33.42066 -112.37618 970 ft 22 kts 38°
2026-05-05 00:52 33.42196 -112.37495 972 ft 25 kts 38°
2026-05-05 00:52 33.42346 -112.37355 989 ft 29 kts 38°
2026-05-05 00:52 33.42508 -112.37201 982 ft 31 kts 38°
2026-05-05 00:52 33.42687 -112.37036 972 ft 32 kts 38°
2026-05-05 00:53 33.42776 -112.36946 980 ft 14 kts 58°
2026-05-05 00:53 33.42745 -112.36835 974 ft 16 kts 126°
2026-05-05 00:53 33.42685 -112.36736 969 ft 14 kts 126°
2026-05-05 00:53 33.42641 -112.36672 975 ft 5 kts 169°
2026-05-05 00:54 33.42616 -112.36692 982 ft 6 kts 218°
2026-05-05 00:54 33.42610 -112.36698 976 ft 0 kts 216°